When you browse on this site, cookies collect data to enhance your experience and personalize the content and advertising you see.
Visit our Privacy Policy to learn more. By continuing to use the site, you agree to this use of cookies and data.
  • în România
  • Lista ţărilor
  • Pe 7 zile
  • Temperatura apei
  • Hartă satelitară
  • Meteo pe hartă
  • Widget-uri
  • user-avatar
    Intrare

    Meteo pe oră la Santa Fe

    Astăzi, 22 Martie, Vineri

    Timp Temperatura Precipitaţii Vânt Presiune Umiditate
    00:00 +15°C° 0 mm 2 m/s 762 mmHg 58%
    01:00 +15°C° 0 mm 2 m/s 762 mmHg 60%
    02:00 +14°C° 0 mm 2 m/s 762 mmHg 63%
    03:00 +14°C° 0 mm 2 m/s 762 mmHg 66%
    04:00 +14°C° 0 mm 2 m/s 762 mmHg 68%
    05:00 +14°C° 0 mm 2 m/s 762 mmHg 71%
    06:00 +14°C° 0 mm 3 m/s 762 mmHg 66%
    07:00 +16°C° 0 mm 3 m/s 762 mmHg 62%
    08:00 +18°C° 0 mm 3 m/s 763 mmHg 58%
    09:00 +20°C° 0 mm 3 m/s 763 mmHg 50%
    10:00 +24°C° 0 mm 3 m/s 763 mmHg 42%
    11:00 +26°C° 0 mm 2 m/s 763 mmHg 34%
    12:00 +28°C° 0 mm 2 m/s 762 mmHg 32%
    13:00 +29°C° 0 mm 1 m/s 761 mmHg 30%
    14:00 +29°C° 0 mm 0 m/s 761 mmHg 29%
    15:00 +28°C° 0 mm 0 m/s 760 mmHg 29%
    16:00 +27°C° 0 mm 0 m/s 760 mmHg 30%
    17:00 +27°C° 0 mm 0 m/s 759 mmHg 31%
    18:00 +26°C° 0 mm 1 m/s 760 mmHg 36%
    19:00 +24°C° 0 mm 1 m/s 760 mmHg 41%
    20:00 +21°C° 0 mm 2 m/s 760 mmHg 47%
    21:00 +20°C° 0 mm 2 m/s 761 mmHg 49%
    22:00 +19°C° 0 mm 2 m/s 761 mmHg 52%
    23:00 +18°C° 0 mm 2 m/s 761 mmHg 55%

    Mâine, 23 Martie, Sâmbătă

    Timp Temperatura Precipitaţii Vânt Presiune Umiditate
    00:00 +18°C° 0 mm 2 m/s 761 mmHg 56%
    01:00 +17°C° 0 mm 2 m/s 761 mmHg 57%
    02:00 +17°C° 0 mm 2 m/s 761 mmHg 58%
    03:00 +16°C° 0 mm 2 m/s 761 mmHg 59%
    04:00 +16°C° 0 mm 2 m/s 760 mmHg 60%
    05:00 +16°C° 0 mm 2 m/s 760 mmHg 61%
    06:00 +17°C° 0 mm 2 m/s 761 mmHg 57%
    07:00 +19°C° 0 mm 3 m/s 761 mmHg 53%
    08:00 +20°C° 0 mm 3 m/s 761 mmHg 48%
    09:00 +24°C° 0 mm 3 m/s 761 mmHg 42%
    10:00 +27°C° 0 mm 3 m/s 761 mmHg 37%
    11:00 +29°C° 0 mm 3 m/s 761 mmHg 31%
    12:00 +30°C° 0 mm 3 m/s 760 mmHg 29%
    13:00 +31°C° 0 mm 3 m/s 759 mmHg 27%
    14:00 +33°C° 0 mm 3 m/s 758 mmHg 25%
    15:00 +33°C° 0 mm 3 m/s 758 mmHg 26%
    16:00 +31°C° 0 mm 3 m/s 757 mmHg 28%
    17:00 +31°C° 0 mm 3 m/s 757 mmHg 29%
    18:00 +29°C° 0 mm 3 m/s 757 mmHg 35%
    19:00 +26°C° 0 mm 3 m/s 757 mmHg 40%
    20:00 +24°C° 0 mm 3 m/s 758 mmHg 46%
    21:00 +23°C° 0 mm 2 m/s 758 mmHg 47%
    22:00 +23°C° 0 mm 2 m/s 758 mmHg 49%
    23:00 +21°C° 0 mm 2 m/s 759 mmHg 50%

    Poimâine, 24 Martie, Duminică

    Timp Temperatura Precipitaţii Vânt Presiune Umiditate
    00:00 +21°C° 0 mm 2 m/s 759 mmHg 51%
    01:00 +20°C° 0 mm 2 m/s 758 mmHg 52%
    02:00 +19°C° 0 mm 2 m/s 758 mmHg 53%
    03:00 +19°C° 0 mm 2 m/s 759 mmHg 53%
    04:00 +19°C° 0 mm 2 m/s 759 mmHg 53%
    05:00 +19°C° 0 mm 2 m/s 759 mmHg 53%
    06:00 +20°C° 0 mm 2 m/s 760 mmHg 51%
    07:00 +23°C° 0 mm 2 m/s 760 mmHg 50%
    08:00 +24°C° 0 mm 2 m/s 761 mmHg 48%
    09:00 +26°C° 0 mm 3 m/s 761 mmHg 40%
    10:00 +28°C° 0 mm 3 m/s 761 mmHg 32%
    11:00 +30°C° 0 mm 4 m/s 761 mmHg 24%
    12:00 +32°C° 0 mm 4 m/s 761 mmHg 21%
    13:00 +33°C° 0 mm 4 m/s 760 mmHg 18%
    14:00 +34°C° 0 mm 4 m/s 759 mmHg 15%
    15:00 +33°C° 0 mm 4 m/s 759 mmHg 16%
    16:00 +32°C° 0 mm 4 m/s 759 mmHg 17%
    17:00 +32°C° 0 mm 4 m/s 758 mmHg 18%
    18:00 +28°C° 0 mm 4 m/s 759 mmHg 22%
    19:00 +26°C° 0 mm 4 m/s 759 mmHg 26%
    20:00 +22°C° 0 mm 3 m/s 760 mmHg 31%
    21:00 +22°C° 0 mm 3 m/s 760 mmHg 34%
    22:00 +21°C° 0 mm 3 m/s 761 mmHg 37%
    23:00 +20°C° 0 mm 3 m/s 761 mmHg 41%

    25 Martie, Luni

    Timp Temperatura Precipitaţii Vânt Presiune Umiditate
    00:00 +19°C° 0 mm 3 m/s 761 mmHg 43%
    01:00 +18°C° 0 mm 3 m/s 761 mmHg 46%
    02:00 +17°C° 0 mm 3 m/s 761 mmHg 48%
    03:00 +17°C° 0 mm 3 m/s 761 mmHg 53%
    04:00 +16°C° 0 mm 2 m/s 761 mmHg 57%
    05:00 +15°C° 0 mm 2 m/s 761 mmHg 61%
    06:00 +16°C° 0 mm 3 m/s 762 mmHg 59%
    07:00 +17°C° 0 mm 3 m/s 762 mmHg 56%
    08:00 +18°C° 0 mm 3 m/s 763 mmHg 54%
    09:00 +20°C° 0 mm 3 m/s 763 mmHg 47%
    10:00 +24°C° 0 mm 3 m/s 763 mmHg 40%
    11:00 +26°C° 0 mm 3 m/s 763 mmHg 33%
    12:00 +27°C° 0 mm 3 m/s 762 mmHg 30%
    13:00 +28°C° 0 mm 3 m/s 761 mmHg 26%
    14:00 +29°C° 0 mm 3 m/s 761 mmHg 23%
    15:00 +29°C° 0 mm 3 m/s 760 mmHg 24%
    16:00 +29°C° 0 mm 3 m/s 760 mmHg 25%
    17:00 +28°C° 0 mm 3 m/s 760 mmHg 26%
    18:00 +26°C° 0 mm 3 m/s 760 mmHg 33%
    19:00 +24°C° 0 mm 3 m/s 761 mmHg 39%
    20:00 +21°C° 0 mm 3 m/s 762 mmHg 46%
    21:00 +20°C° 0 mm 3 m/s 762 mmHg 53%
    22:00 +19°C° 0 mm 3 m/s 763 mmHg 61%
    23:00 +18°C° 0 mm 3 m/s 763 mmHg 68%

    26 Martie, Marţi

    Timp Temperatura Precipitaţii Vânt Presiune Umiditate
    00:00 +18°C° 0 mm 3 m/s 763 mmHg 71%
    01:00 +17°C° 0 mm 3 m/s 763 mmHg 74%
    02:00 +16°C° 0 mm 3 m/s 763 mmHg 77%
    03:00 +16°C° 0 mm 2 m/s 763 mmHg 80%
    04:00 +15°C° 0 mm 2 m/s 764 mmHg 82%
    05:00 +14°C° 0 mm 2 m/s 764 mmHg 84%
    06:00 +16°C° 0 mm 2 m/s 765 mmHg 78%
    07:00 +17°C° 0 mm 2 m/s 765 mmHg 72%
    08:00 +18°C° 0 mm 2 m/s 766 mmHg 66%
    09:00 +20°C° 0 mm 2 m/s 766 mmHg 57%
    10:00 +23°C° 0 mm 2 m/s 766 mmHg 49%
    11:00 +26°C° 0 mm 3 m/s 766 mmHg 41%
    12:00 +27°C° 0 mm 3 m/s 765 mmHg 37%
    13:00 +28°C° 0 mm 3 m/s 765 mmHg 34%
    14:00 +29°C° 0 mm 4 m/s 764 mmHg 31%
    15:00 +28°C° 0 mm 4 m/s 764 mmHg 31%
    16:00 +28°C° 0 mm 3 m/s 764 mmHg 32%
    17:00 +28°C° 0 mm 3 m/s 764 mmHg 32%
    18:00 +26°C° 0 mm 3 m/s 764 mmHg 38%
    19:00 +24°C° 0 mm 3 m/s 765 mmHg 44%
    20:00 +21°C° 0 mm 3 m/s 765 mmHg 50%
    21:00 +21°C° 0 mm 3 m/s 765 mmHg 54%
    22:00 +20°C° 0 mm 3 m/s 766 mmHg 57%
    23:00 +20°C° 0 mm 3 m/s 766 mmHg 61%

    27 Martie, Miercuri

    Timp Temperatura Precipitaţii Vânt Presiune Umiditate
    00:00 +20°C° 0 mm 3 m/s 766 mmHg 64%
    01:00 +19°C° 0 mm 3 m/s 766 mmHg 67%
    02:00 +19°C° 0 mm 3 m/s 766 mmHg 70%
    03:00 +19°C° 0 mm 3 m/s 766 mmHg 74%
    04:00 +18°C° 0 mm 3 m/s 766 mmHg 79%
    05:00 +17°C° 0 mm 3 m/s 766 mmHg 83%
    06:00 +18°C° 0 mm 3 m/s 766 mmHg 81%
    07:00 +19°C° 0 mm 4 m/s 767 mmHg 79%
    08:00 +19°C° 0 mm 4 m/s 767 mmHg 77%
    09:00 +20°C° 0 mm 4 m/s 767 mmHg 73%
    10:00 +21°C° 0 mm 4 m/s 766 mmHg 70%
    11:00 +22°C° 0 mm 4 m/s 766 mmHg 66%
    12:00 +25°C° 0 mm 4 m/s 765 mmHg 60%
    13:00 +26°C° 0 mm 4 m/s 764 mmHg 54%
    14:00 +28°C° 0 mm 4 m/s 764 mmHg 49%
    15:00 +28°C° 0 mm 4 m/s 763 mmHg 49%
    16:00 +27°C° 0 mm 4 m/s 763 mmHg 49%
    17:00 +27°C° 0 mm 4 m/s 763 mmHg 49%
    18:00 +26°C° 0 mm 4 m/s 763 mmHg 52%
    19:00 +25°C° 0 mm 4 m/s 763 mmHg 56%
    20:00 +22°C° 0 mm 3 m/s 763 mmHg 60%
    21:00 +22°C° 0 mm 3 m/s 763 mmHg 62%
    22:00 +21°C° 0 mm 4 m/s 763 mmHg 64%
    23:00 +21°C° 0 mm 4 m/s 763 mmHg 66%
    Arată mai mult